EW4521 Weather Reports


Display with metric or nautical units.
time (UTC)temp
F
wind
direction
speed
MPH
gust
MPH
rain 1hr
in
rain 24hr
in
rain mn
in
humidity
%
barometer
mb
20260507084526 54 287 0.0 0.0 0.00 0.00 0.00 90 1016.5
20260507083028 54 287 0.0 0.0 0.00 0.00 0.00 89 1016.7
20260507081533 54 287 0.0 0.0 0.00 0.00 0.00 89 1016.7
20260507080023 54 287 0.0 0.0 0.00 0.00 0.00 89 1016.8
20260507074521 55 287 0.0 1.0 0.00 0.00 0.00 89 1016.8
20260507073020 55 287 0.0 1.0 0.00 0.00 0.00 89 1016.8
20260507071518 55 287 0.0 3.0 0.00 0.00 0.00 89 1016.7
20260507070014 56 286 1.0 3.0 0.00 0.00 0.00 89 1016.9
20260507064515 56 284 0.0 2.0 0.00 0.00 0.00 88 1017.1
20260507063013 56 290 1.0 4.0 0.00 0.00 0.00 87 1017.1
20260507061513 56 284 0.0 3.0 0.00 0.00 0.00 86 1017.1
20260507060013 56 283 0.0 1.0 0.00 0.00 0.00 86 1017.1
20260507054512 56 284 0.0 3.0 0.00 0.00 0.00 85 1017.1
20260507053011 56 284 0.0 3.0 0.00 0.00 0.00 84 1017.1
20260507051511 56 285 0.0 0.0 0.00 0.00 0.00 84 1017.1
20260507050011 57 285 0.0 1.0 0.00 0.00 0.00 84 1017.0
20260507044512 57 285 0.0 0.0 0.00 0.00 0.00 83 1017.0
20260507043009 58 285 0.0 1.0 0.00 0.00 0.00 83 1016.9
20260507041523 58 285 0.0 3.0 0.00 0.00 0.00 82 1016.9
20260507040008 58 282 0.0 3.0 0.00 0.00 0.00 81 1016.8
20260507034511 59 292 1.0 4.0 0.00 0.00 0.00 80 1016.6
20260507033009 59 280 1.0 5.0 0.00 0.00 0.00 78 1016.5
20260507031505 60 301 2.0 5.0 0.00 0.00 0.00 76 1016.3
20260507030004 60 288 1.0 6.0 0.00 0.00 0.00 74 1016.2
20260507024505 61 272 2.0 6.0 0.00 0.00 0.00 72 1016.1
20260507023004 62 301 1.0 7.0 0.00 0.00 0.00 71 1016.0
20260507021503 62 276 3.0 8.0 0.00 0.00 0.00 69 1016.0
20260507020004 63 302 2.0 5.0 0.00 0.00 0.00 68 1015.9
20260507014506 64 288 1.0 8.0 0.00 0.00 0.00 66 1015.8
20260507013004 65 258 4.0 9.0 0.00 0.00 0.00 62 1015.7
20260507011501 66 203 2.0 9.0 0.00 0.00 0.00 61 1015.7
20260507010100 67 259 4.0 11.0 0.00 0.00 0.00 61 1015.7
20260507004700 68 229 1.0 12.0 0.00 0.00 0.00 58 1015.6
20260507003101 68 324 3.0 10.0 0.00 0.00 0.00 58 1015.6
20260507000100 69 273 5.0 12.0 0.00 0.00 0.00 59 1015.4
20260506234556 69 282 4.0 13.0 0.00 0.00 0.00 59 1015.3
20260506233102 69 194 5.0 14.0 0.00 0.00 0.00 59 1015.3
20260506231555 70 224 3.0 11.0 0.00 0.00 0.00 58 1015.3
20260506230054 71 299 5.0 12.0 0.00 0.00 0.00 55 1015.3
20260506224554 71 278 4.0 9.0 0.00 0.00 0.00 55 1015.4
20260506223105 72 227 5.0 11.0 0.00 0.00 0.00 54 1015.6
20260506221552 71 326 4.0 10.0 0.00 0.00 0.00 55 1015.6
20260506220051 71 309 7.0 12.0 0.00 0.00 0.00 57 1015.7
20260506214551 71 274 3.0 15.0 0.00 0.00 0.00 57 1015.9
20260506213048 70 199 7.0 13.0 0.00 0.00 0.00 59 1015.8
20260506211547 71 199 3.0 18.0 0.00 0.00 0.00 57 1016.0
20260506210046 71 205 3.0 12.0 0.00 0.00 0.00 58 1016.2
20260506204545 71 200 4.0 15.0 0.00 0.00 0.00 58 1016.2
20260506203046 71 155 4.0 14.0 0.00 0.00 0.00 57 1016.2
20260506201543 72 193 6.0 12.0 0.00 0.00 0.00 54 1016.3
20260506194539 73 318 3.0 11.0 0.00 0.00 0.00 53 1016.7
20260506193037 73 262 2.0 8.0 0.00 0.00 0.00 51 1016.7
20260506191534 72 272 5.0 10.0 0.00 0.00 0.00 50 1017.0
20260506190030 71 284 1.0 9.0 0.00 0.00 0.00 53 1017.1
20260506184528 70 263 2.0 8.0 0.00 0.00 0.00 53 1017.2
20260506183025 71 277 3.0 8.0 0.00 0.00 0.00 52 1017.4
20260506181529 70 254 2.0 9.0 0.00 0.00 0.00 54 1017.5
20260506180025 68 39 1.0 9.0 0.00 0.00 0.00 57 1017.7
20260506174514 67 271 3.0 9.0 0.00 0.02 0.00 60 1017.8
20260506173012 67 218 2.0 8.0 0.00 0.02 0.00 61 1017.9
20260506171507 66 154 2.0 8.0 0.00 0.02 0.00 61 1018.1
20260506170003 65 276 4.0 11.0 0.00 0.02 0.00 64 1018.1
20260506164559 63 293 3.0 7.0 0.00 0.02 0.00 65 1018.0
20260506163100 62 38 1.0 4.0 0.00 0.02 0.00 69 1018.1
20260506161556 61 50 1.0 6.0 0.00 0.02 0.00 70 1018.1
20260506160050 60 66 1.0 6.0 0.00 0.02 0.00 72 1018.1
20260506154542 59 93 1.0 7.0 0.00 0.02 0.00 74 1018.1
20260506153042 57 78 2.0 6.0 0.00 0.02 0.00 78 1018.1
20260506151535 55 58 2.0 4.0 0.00 0.02 0.00 84 1018.2
20260506150033 53 53 2.0 5.0 0.00 0.02 0.00 88 1018.1
20260506144526 51 58 1.0 5.0 0.00 0.09 0.00 90 1018.1
20260506143021 50 23 0.0 3.0 0.00 0.09 0.00 90 1018.1
20260506141518 49 22 0.0 2.0 0.00 0.09 0.00 90 1018.1
20260506140020 49 22 1.0 4.0 0.00 0.09 0.00 90 1018.0
20260506134526 48 353 0.0 0.0 0.00 0.09 0.00 89 1017.8
20260506133012 48 351 0.0 0.0 0.00 0.09 0.00 89 1017.7
20260506131510 48 351 0.0 2.0 0.00 0.09 0.00 88 1017.6
20260506130008 48 326 0.0 0.0 0.00 0.09 0.00 88 1017.5
20260506124511 49 327 0.0 2.0 0.00 0.09 0.00 88 1017.4
20260506123005 49 328 0.0 2.0 0.00 0.09 0.00 88 1017.3
20260506121507 49 327 0.0 2.0 0.00 0.09 0.00 87 1017.1
20260506120008 49 327 0.0 3.0 0.00 0.09 0.00 87 1017.2
20260506114558 50 306 0.0 2.0 0.00 0.09 0.00 87 1017.1
20260506113057 50 306 0.0 0.0 0.00 0.09 0.00 87 1017.2
20260506111611 50 306 0.0 0.0 0.00 0.09 0.00 87 1017.1
20260506110055 50 305 0.0 1.0 0.00 0.09 0.00 87 1017.1
20260506104553 50 294 0.0 1.0 0.00 0.09 0.00 87 1017.1
20260506103052 50 294 0.0 1.0 0.00 0.09 0.00 87 1017.0
20260506101551 50 294 0.0 2.0 0.00 0.09 0.00 87 1016.9
20260506100049 50 294 0.0 0.0 0.00 0.09 0.00 87 1016.8
20260506094548 51 294 0.0 1.0 0.00 0.12 0.00 87 1016.9
20260506093053 51 294 0.0 1.0 0.00 0.12 0.00 86 1016.8
20260506091544 51 294 0.0 0.0 0.00 0.12 0.00 86 1016.9
20260506090042 51 294 0.0 0.0 0.00 0.12 0.00 86 1017.0